When you browse on this site, cookies collect data to enhance your experience and personalize the content and advertising you see.
Visit our Privacy Policy to learn more. By continuing to use the site, you agree to this use of cookies and data.
  • In Schweiz
  • Länderverzeichnis
  • Für 7 Tage
  • Wassertemperatur
  • Wetterkarte
  • Widgets
  • user-avatar
    Anmelden

    Stündliche Wetter Ajova-Siti

    Heute, 15 Dezember, Sonntag

    Zeit Temperatur Niederschläge Wind Luftdruck Luftfeuchtigkeit
    00:00 -14°C° 0 mm 4 m/S 742 mmHg 65%
    01:00 -13°C° 0 mm 3 m/S 742 mmHg 64%
    02:00 -13°C° 0 mm 3 m/S 742 mmHg 63%
    03:00 -12°C° 0 mm 2 m/S 742 mmHg 63%
    04:00 -12°C° 0 mm 2 m/S 743 mmHg 62%
    05:00 -12°C° 0 mm 2 m/S 743 mmHg 62%
    06:00 -12°C° 0 mm 2 m/S 743 mmHg 62%
    07:00 -12°C° 0 mm 2 m/S 743 mmHg 60%
    08:00 -10°C° 0 mm 1 m/S 744 mmHg 58%
    09:00 -10°C° 0 mm 1 m/S 744 mmHg 56%
    10:00 -9°C° 0 mm 1 m/S 744 mmHg 52%
    11:00 -8°C° 0 mm 1 m/S 744 mmHg 48%
    12:00 -7°C° 0 mm 1 m/S 744 mmHg 44%
    13:00 -6°C° 0 mm 1 m/S 744 mmHg 42%
    14:00 -6°C° 0 mm 1 m/S 743 mmHg 40%
    15:00 -4°C° 0 mm 1 m/S 742 mmHg 39%
    16:00 -4°C° 0.1 mm 1 m/S 743 mmHg 42%
    17:00 -4°C° 0.1 mm 1 m/S 743 mmHg 45%
    18:00 -4°C° 0.1 mm 1 m/S 743 mmHg 48%
    19:00 -4°C° 0.3 mm 1 m/S 743 mmHg 63%
    20:00 -6°C° 0.3 mm 1 m/S 744 mmHg 77%
    21:00 -6°C° 0.3 mm 1 m/S 744 mmHg 91%
    22:00 -6°C° 0.2 mm 1 m/S 744 mmHg 91%
    23:00 -6°C° 0.2 mm 1 m/S 744 mmHg 91%

    Morgen, 16 Dezember, Montag

    Zeit Temperatur Niederschläge Wind Luftdruck Luftfeuchtigkeit
    00:00 -6°C° 0.2 mm 1 m/S 744 mmHg 91%
    01:00 -7°C° 0 mm 1 m/S 744 mmHg 92%
    02:00 -7°C° 0 mm 1 m/S 744 mmHg 93%
    03:00 -7°C° 0 mm 1 m/S 744 mmHg 94%
    04:00 -7°C° 0 mm 1 m/S 744 mmHg 93%
    05:00 -8°C° 0 mm 0 m/S 744 mmHg 93%
    06:00 -8°C° 0 mm 0 m/S 744 mmHg 93%
    07:00 -7°C° 0 mm 0 m/S 745 mmHg 89%
    08:00 -7°C° 0 mm 1 m/S 745 mmHg 86%
    09:00 -7°C° 0 mm 2 m/S 746 mmHg 82%
    10:00 -6°C° 0 mm 2 m/S 746 mmHg 78%
    11:00 -5°C° 0 mm 2 m/S 746 mmHg 73%
    12:00 -4°C° 0 mm 2 m/S 745 mmHg 69%
    13:00 -4°C° 0 mm 2 m/S 745 mmHg 68%
    14:00 -3°C° 0 mm 2 m/S 745 mmHg 68%
    15:00 -3°C° 0 mm 2 m/S 744 mmHg 67%
    16:00 -4°C° 0 mm 2 m/S 745 mmHg 71%
    17:00 -4°C° 0 mm 2 m/S 745 mmHg 74%
    18:00 -5°C° 0 mm 2 m/S 745 mmHg 78%
    19:00 -6°C° 0 mm 3 m/S 745 mmHg 79%
    20:00 -7°C° 0 mm 3 m/S 745 mmHg 81%
    21:00 -7°C° 0 mm 3 m/S 745 mmHg 83%
    22:00 -8°C° 0 mm 3 m/S 746 mmHg 83%
    23:00 -8°C° 0 mm 3 m/S 746 mmHg 83%

    übermorgen, 17 Dezember, Dienstag

    Zeit Temperatur Niederschläge Wind Luftdruck Luftfeuchtigkeit
    00:00 -9°C° 0 mm 3 m/S 746 mmHg 83%
    01:00 -9°C° 0 mm 3 m/S 746 mmHg 82%
    02:00 -9°C° 0 mm 2 m/S 746 mmHg 81%
    03:00 -9°C° 0 mm 2 m/S 746 mmHg 80%
    04:00 -9°C° 0 mm 2 m/S 746 mmHg 79%
    05:00 -9°C° 0 mm 2 m/S 746 mmHg 77%
    06:00 -9°C° 0 mm 2 m/S 746 mmHg 76%
    07:00 -9°C° 0 mm 2 m/S 746 mmHg 75%
    08:00 -9°C° 0 mm 3 m/S 746 mmHg 75%
    09:00 -9°C° 0 mm 3 m/S 746 mmHg 74%
    10:00 -7°C° 0 mm 3 m/S 746 mmHg 71%
    11:00 -6°C° 0 mm 3 m/S 745 mmHg 69%
    12:00 -4°C° 0 mm 4 m/S 745 mmHg 66%
    13:00 -4°C° 0 mm 4 m/S 745 mmHg 66%
    14:00 -3°C° 0 mm 4 m/S 744 mmHg 65%
    15:00 -3°C° 0 mm 4 m/S 744 mmHg 64%
    16:00 -4°C° 0 mm 4 m/S 744 mmHg 69%
    17:00 -5°C° 0 mm 3 m/S 744 mmHg 74%
    18:00 -6°C° 0 mm 3 m/S 744 mmHg 78%
    19:00 -6°C° 0 mm 3 m/S 744 mmHg 79%
    20:00 -7°C° 0 mm 3 m/S 745 mmHg 80%
    21:00 -7°C° 0 mm 3 m/S 745 mmHg 81%
    22:00 -8°C° 0 mm 3 m/S 745 mmHg 81%
    23:00 -8°C° 0 mm 3 m/S 745 mmHg 81%

    18 Dezember, Mittwoch

    Zeit Temperatur Niederschläge Wind Luftdruck Luftfeuchtigkeit
    00:00 -9°C° 0 mm 3 m/S 745 mmHg 81%
    01:00 -9°C° 0 mm 3 m/S 746 mmHg 79%
    02:00 -10°C° 0 mm 3 m/S 746 mmHg 78%
    03:00 -10°C° 0 mm 3 m/S 746 mmHg 77%
    04:00 -12°C° 0 mm 3 m/S 747 mmHg 75%
    05:00 -12°C° 0 mm 3 m/S 747 mmHg 74%
    06:00 -13°C° 0 mm 3 m/S 747 mmHg 73%
    07:00 -10°C° 0 mm 2 m/S 748 mmHg 68%
    08:00 -10°C° 0 mm 2 m/S 748 mmHg 63%
    09:00 -9°C° 0 mm 1 m/S 748 mmHg 58%
    10:00 -8°C° 0 mm 1 m/S 748 mmHg 53%
    11:00 -7°C° 0 mm 1 m/S 748 mmHg 47%
    12:00 -7°C° 0 mm 0 m/S 748 mmHg 42%
    13:00 -6°C° 0 mm 1 m/S 748 mmHg 44%
    14:00 -4°C° 0 mm 1 m/S 747 mmHg 45%
    15:00 -6°C° 0 mm 2 m/S 747 mmHg 47%
    16:00 -7°C° 0 mm 3 m/S 746 mmHg 55%
    17:00 -8°C° 0 mm 3 m/S 746 mmHg 62%
    18:00 -9°C° 0 mm 4 m/S 745 mmHg 70%
    19:00 -9°C° 0 mm 4 m/S 745 mmHg 74%
    20:00 -9°C° 0 mm 4 m/S 745 mmHg 78%
    21:00 -9°C° 0 mm 4 m/S 745 mmHg 82%
    22:00 -9°C° 0 mm 4 m/S 744 mmHg 86%
    23:00 -9°C° 0 mm 4 m/S 744 mmHg 90%

    19 Dezember, Donnerstag

    Zeit Temperatur Niederschläge Wind Luftdruck Luftfeuchtigkeit
    00:00 -10°C° 0 mm 5 m/S 743 mmHg 94%
    01:00 -10°C° 0 mm 5 m/S 743 mmHg 94%
    02:00 -9°C° 0 mm 4 m/S 742 mmHg 94%
    03:00 -8°C° 0 mm 4 m/S 742 mmHg 94%
    04:00 -8°C° 0 mm 4 m/S 742 mmHg 93%
    05:00 -8°C° 0 mm 4 m/S 741 mmHg 92%
    06:00 -7°C° 0 mm 3 m/S 741 mmHg 91%
    07:00 -6°C° 0 mm 3 m/S 741 mmHg 88%
    08:00 -5°C° 0 mm 3 m/S 742 mmHg 84%
    09:00 -4°C° 0 mm 3 m/S 742 mmHg 80%
    10:00 -2°C° 0 mm 3 m/S 742 mmHg 75%
    11:00 -1°C° 0 mm 4 m/S 741 mmHg 69%
    12:00 +1°C° 0 mm 4 m/S 741 mmHg 64%
    13:00 +1°C° 0 mm 4 m/S 741 mmHg 66%
    14:00 +1°C° 0 mm 4 m/S 741 mmHg 68%
    15:00 +2°C° 0 mm 3 m/S 741 mmHg 70%
    16:00 +1°C° 0 mm 3 m/S 741 mmHg 75%
    17:00 0°C° 0 mm 3 m/S 741 mmHg 80%
    18:00 0°C° 0 mm 3 m/S 741 mmHg 85%
    19:00 -1°C° 0 mm 3 m/S 741 mmHg 86%
    20:00 -1°C° 0 mm 3 m/S 742 mmHg 87%
    21:00 -1°C° 0 mm 3 m/S 742 mmHg 88%
    22:00 -1°C° 0 mm 3 m/S 742 mmHg 86%
    23:00 -1°C° 0 mm 3 m/S 741 mmHg 85%

    20 Dezember, Freitag

    Zeit Temperatur Niederschläge Wind Luftdruck Luftfeuchtigkeit
    00:00 -2°C° 0 mm 4 m/S 741 mmHg 84%
    01:00 -2°C° 0 mm 4 m/S 741 mmHg 84%
    02:00 -2°C° 0 mm 4 m/S 741 mmHg 84%
    03:00 -2°C° 0 mm 4 m/S 741 mmHg 84%
    04:00 -2°C° 0 mm 4 m/S 741 mmHg 85%
    05:00 -2°C° 0 mm 4 m/S 741 mmHg 87%
    06:00 -2°C° 0 mm 4 m/S 741 mmHg 88%
    07:00 -2°C° 0 mm 4 m/S 741 mmHg 86%
    08:00 -2°C° 0 mm 4 m/S 741 mmHg 85%
    09:00 -1°C° 0 mm 4 m/S 741 mmHg 84%
    10:00 0°C° 0 mm 4 m/S 741 mmHg 81%
    11:00 0°C° 0 mm 5 m/S 741 mmHg 78%
    12:00 +1°C° 0 mm 5 m/S 740 mmHg 75%
    13:00 +1°C° 0 mm 4 m/S 740 mmHg 76%
    14:00 0°C° 0 mm 4 m/S 740 mmHg 76%
    15:00 0°C° 0 mm 4 m/S 740 mmHg 77%
    16:00 -2°C° 0 mm 4 m/S 740 mmHg 78%
    17:00 -3°C° 0 mm 4 m/S 741 mmHg 79%
    18:00 -4°C° 0 mm 4 m/S 741 mmHg 80%
    19:00 -4°C° 0 mm 4 m/S 741 mmHg 83%
    20:00 -4°C° 0 mm 4 m/S 741 mmHg 85%
    21:00 -4°C° 0 mm 4 m/S 742 mmHg 87%
    22:00 -5°C° 0 mm 5 m/S 742 mmHg 87%
    23:00 -5°C° 0 mm 5 m/S 742 mmHg 86%
    Mehr zeigen